Weather History for Taos, NM

Change the Weather History Date:

Thursday, December 13, 2012

  Actual Average Record
Temperature  
Mean Temperature 28 °F -  
Max Temperature 48 °F 39 °F 55 °F (2010)
Min Temperature 8 °F 9 °F -2 °F (2001)
Degree Days  
Heating Degree Days 37    
Moisture  
Dew Point 6 °F    
Average Humidity 49    
Maximum Humidity 73    
Minimum Humidity 20    
Precipitation  
Precipitation 0.00 in - - ()
Sea Level Pressure  
Sea Level Pressure 30.10 in    
Wind  
Wind Speed 6 mph (North)    
Max Wind Speed 10 mph    
Max Gust Speed -    
Visibility 10 miles    
Events      
Averages and records for this station are not official NWS values.
T = Trace of Precipitation, MM = Missing Value Source: NWS Daily Summary

Daily Weather History Graph

Daily Weather History Graph

Search for Another Location

Airport:

Trip Planner

Search our weather history database for the weather conditions in past years. The results will help you decide how hot, cold, wet, or windy it might be!

Date:

Astronomy

Dec. 13, 2012 Rise Set
Actual Time 7:06 AM MST 4:48 PM MST
Civil Twilight 6:37 AM MST 5:16 PM MST
Nautical Twilight 6:05 AM MST 5:49 PM MST
Astronomical Twilight 5:33 AM MST 6:20 PM MST
Moon 7:17 AM MST (12/13) 5:32 PM MST (12/13)
Length of Visible Light 10h 39m
Length of Day
9h 41m
New Moon, 0% of the Moon is Illuminated
Dec 13
New Moon
Dec 19
First Quarter
Dec 28
Full
Jan 4
Last Quarter
Jan 11
New

Hourly Weather History & Observations

Time (MST) Temp. Windchill Dew Point Humidity Pressure Visibility Wind Dir Wind Speed Gust Speed Precip Events Conditions
12:15 AM 10.4 °F -0.4 °F -2.2 °F 57% 30.14 in 10.0 mi North 6.9 mph - N/A   Clear
12:35 AM 12.2 °F 2.9 °F 3.2 °F 67% 30.14 in 10.0 mi North 5.8 mph - N/A   Clear
12:55 AM 14.0 °F 5.1 °F 1.4 °F 57% 30.14 in 10.0 mi North 5.8 mph - N/A   Clear
1:15 AM 12.2 °F 0.7 °F 1.4 °F 62% 30.13 in 10.0 mi North 8.1 mph - N/A   Clear
1:35 AM 14.0 °F 3.9 °F 3.2 °F 62% 30.14 in 10.0 mi North 6.9 mph - N/A   Clear
1:55 AM 12.2 °F 2.9 °F 1.4 °F 62% 30.14 in 10.0 mi North 5.8 mph - N/A   Clear
2:15 AM 12.2 °F 6.1 °F 1.4 °F 62% 30.14 in 10.0 mi North 3.5 mph - N/A   Clear
2:35 AM 12.2 °F 1.7 °F 3.2 °F 67% 30.14 in 10.0 mi NNE 6.9 mph - N/A   Clear
2:55 AM 12.2 °F 0.7 °F 3.2 °F 67% 30.14 in 10.0 mi North 8.1 mph - N/A   Clear
3:15 AM 12.2 °F 0.7 °F 3.2 °F 67% 30.13 in 10.0 mi North 8.1 mph - N/A   Clear
3:35 AM 10.4 °F -1.5 °F 1.4 °F 67% 30.13 in 10.0 mi North 8.1 mph - N/A   Clear
3:55 AM 8.6 °F -4.7 °F -0.4 °F 67% 30.13 in 10.0 mi North 9.2 mph - N/A   Clear
4:15 AM 10.4 °F -1.5 °F 1.4 °F 67% 30.13 in 10.0 mi North 8.1 mph - N/A   Clear
4:35 AM 10.4 °F -2.4 °F 1.4 °F 67% 30.13 in 10.0 mi NNE 9.2 mph - N/A   Clear
4:55 AM 10.4 °F 0.8 °F 3.2 °F 73% 30.14 in 10.0 mi ENE 5.8 mph - N/A   Clear
5:15 AM 12.2 °F - 5.0 °F 73% 30.13 in 10.0 mi Calm Calm - N/A   Clear
5:35 AM 10.4 °F -1.5 °F 1.4 °F 67% 30.14 in 10.0 mi North 8.1 mph - N/A   Clear
5:55 AM 8.6 °F -3.7 °F -0.4 °F 67% 30.15 in 10.0 mi North 8.1 mph - N/A   Clear
6:15 AM 10.4 °F -1.5 °F 1.4 °F 67% 30.15 in 10.0 mi NNE 8.1 mph - N/A   Clear
6:35 AM 10.4 °F -2.4 °F 1.4 °F 67% 30.14 in 10.0 mi NNE 9.2 mph - N/A   Clear
6:55 AM 10.4 °F -3.3 °F 1.4 °F 67% 30.15 in 10.0 mi North 10.4 mph - N/A   Clear
7:15 AM 10.4 °F -1.5 °F 1.4 °F 67% 30.16 in 10.0 mi North 8.1 mph - N/A   Clear
7:35 AM 10.4 °F -1.5 °F 3.2 °F 73% 30.17 in 10.0 mi NNE 8.1 mph - N/A   Clear
7:55 AM 15.8 °F 7.2 °F 6.8 °F 68% 30.17 in 10.0 mi NNE 5.8 mph - N/A   Clear
8:15 AM 17.6 °F 9.3 °F 6.8 °F 63% 30.18 in 10.0 mi North 5.8 mph - N/A   Clear
8:35 AM 21.2 °F 14.9 °F 8.6 °F 58% 30.18 in 10.0 mi North 4.6 mph - N/A   Clear
8:55 AM 24.8 °F 20.5 °F 8.6 °F 50% 30.18 in 10.0 mi North 3.5 mph - N/A   Clear
9:15 AM 26.6 °F 22.6 °F 10.4 °F 51% 30.18 in 10.0 mi North 3.5 mph - N/A   Clear
9:35 AM 30.2 °F 26.7 °F 12.2 °F 47% 30.18 in 10.0 mi NNW 3.5 mph - N/A   Clear
9:55 AM 33.8 °F 30.8 °F 10.4 °F 38% 30.18 in 10.0 mi NW 3.5 mph - N/A   Clear
10:15 AM 35.6 °F - 12.2 °F 38% 30.17 in 10.0 mi Calm Calm - N/A   Clear
10:35 AM 37.4 °F - 12.2 °F 36% 30.16 in 10.0 mi Calm Calm - N/A   Clear
10:55 AM 41.0 °F - 14.0 °F 33% 30.15 in 10.0 mi Calm Calm - N/A   Clear
11:15 AM 42.8 °F - 12.2 °F 29% 30.13 in 10.0 mi Calm Calm - N/A   Clear
11:35 AM 44.6 °F 43.1 °F 12.2 °F 27% 30.12 in 10.0 mi WNW 3.5 mph - N/A   Clear
11:55 AM 46.4 °F 45.2 °F 12.2 °F 25% 30.11 in 10.0 mi West 3.5 mph - N/A   Clear
12:15 PM 48.2 °F - 12.2 °F 24% 30.10 in 10.0 mi WNW 4.6 mph - N/A   Clear
12:35 PM 48.2 °F - 8.6 °F 20% 30.08 in 10.0 mi Calm Calm - N/A   Clear
12:55 PM 48.2 °F - 10.4 °F 22% 30.07 in 10.0 mi WSW 4.6 mph - N/A   Clear
1:15 PM 48.2 °F - 8.6 °F 20% 30.08 in 10.0 mi Calm Calm - N/A   Clear
1:35 PM 48.2 °F - 8.6 °F 20% 30.07 in 10.0 mi WSW 6.9 mph - N/A   Clear
1:55 PM 48.2 °F - 8.6 °F 20% 30.06 in 10.0 mi WSW 6.9 mph - N/A   Clear
2:15 PM 48.2 °F - 8.6 °F 20% 30.05 in 10.0 mi Calm Calm - N/A   Clear
2:35 PM 48.2 °F - 8.6 °F 20% 30.05 in 10.0 mi SW 8.1 mph - N/A   Clear
2:55 PM 48.2 °F - 10.4 °F 22% 30.04 in 10.0 mi SW 10.4 mph - N/A   Clear
3:15 PM 48.2 °F - 8.6 °F 20% 30.04 in 10.0 mi SSW 9.2 mph - N/A   Clear
3:35 PM 46.4 °F 41.5 °F 8.6 °F 22% 30.04 in 10.0 mi SW 10.4 mph - N/A   Clear
6:15 PM 26.6 °F 17.5 °F 3.2 °F 37% 30.06 in 10.0 mi East 9.2 mph - N/A   Clear
6:35 PM 26.6 °F 17.5 °F 6.8 °F 43% 30.06 in 10.0 mi East 9.2 mph - N/A   Clear
6:55 PM 26.6 °F 19.1 °F 8.6 °F 47% 30.05 in 10.0 mi ENE 6.9 mph - N/A   Clear
7:15 PM 24.8 °F 20.5 °F 6.8 °F 46% 30.05 in 10.0 mi East 3.5 mph - N/A   Clear
7:35 PM 24.8 °F 17.9 °F 6.8 °F 46% 30.05 in 10.0 mi ENE 5.8 mph - N/A   Clear
7:55 PM 23.0 °F 18.4 °F 6.8 °F 50% 30.06 in 10.0 mi SE 3.5 mph - N/A   Clear
8:15 PM 21.2 °F 16.4 °F 8.6 °F 58% 30.05 in 10.0 mi East 3.5 mph - N/A   Clear
8:35 PM 21.2 °F 16.4 °F 6.8 °F 54% 30.05 in 10.0 mi NNE 3.5 mph - N/A   Clear
8:55 PM 21.2 °F 12.6 °F 5.0 °F 50% 30.05 in 10.0 mi North 6.9 mph - N/A   Clear
9:15 PM 21.2 °F 14.9 °F 3.2 °F 46% 30.05 in 10.0 mi North 4.6 mph - N/A   Clear
9:35 PM 24.8 °F 19.1 °F 6.8 °F 46% 30.04 in 10.0 mi North 4.6 mph - N/A   Clear
9:55 PM 21.2 °F 12.6 °F 5.0 °F 50% 30.03 in 10.0 mi NNE 6.9 mph - N/A   Clear
10:15 PM 21.2 °F 10.9 °F 3.2 °F 46% 30.03 in 10.0 mi North 9.2 mph - N/A   Clear
10:35 PM 19.4 °F 11.5 °F 3.2 °F 49% 30.03 in 10.0 mi North 5.8 mph - N/A   Clear
10:55 PM 19.4 °F 8.6 °F 3.2 °F 49% 30.02 in 10.0 mi NNE 9.2 mph - N/A   Clear
11:15 PM 17.6 °F 8.2 °F 5.0 °F 58% 30.01 in 10.0 mi North 6.9 mph - N/A   Clear
11:35 PM 15.8 °F 7.2 °F 1.4 °F 53% 30.01 in 10.0 mi NNW 5.8 mph - N/A   Clear
11:55 PM 15.8 °F 6.1 °F 3.2 °F 58% 30.00 in 10.0 mi North 6.9 mph - N/A   Clear